Tracking 18840 objects as of 18-November-2017
HD Live streaming from Space Station
objects crossing your sky now

SCOUT X-1 R/B

Track SCOUT X-1 R/B now!
10-day predictions


NORAD ID: 82
Int'l Code: 1961-004B
Perigee: 642.0 km
Apogee: 2,506.2 km
Inclination: 38.9 °
Period: 117.5 minutes
Semi major axis: 7945 km
RCS: 0.5515 m2 (medium)
Launch date: February 16, 1961
Source: United States (US)
Launch site: WALLOPS ISLAND (WLPIS)

Note: This is a ROCKET BODY
aabbcc
Your satellite tracking list
Your tracking list is empty




NASA's NSSDC Master Catalog

Two Line Element Set (TLE):
1    82U 61004B   17321.39090943 +.00000098 +00000-0 +10679-3 0  9995
2    82 038.8592 090.0722 1173185 212.6520 139.6045 12.25894818692060
Source of the keplerian elements: AFSPC